GW1622 Weather Reports


Display with metric or nautical units.
time (UTC)temp
F
wind
direction
speed
MPH
gust
MPH
rain 1hr
in
rain 24hr
in
rain mn
in
humidity
%
barometer
mb
20260507205014 71 28 1.0 7.0 0.00 0.00 0.00 71 1016.3
20260507204535 71 62 2.0 6.0 0.00 0.00 0.00 70 1016.2
20260507204016 71 30 1.0 7.0 0.00 0.00 0.00 70 1016.1
20260507203517 69 39 1.0 7.0 0.00 0.00 0.00 73 1016.2
20260507203035 70 103 2.0 6.0 0.00 0.00 0.00 70 1016.2
20260507202516 70 92 2.0 8.0 0.00 0.00 0.00 72 1016.2
20260507202014 69 84 2.0 8.0 0.00 0.00 0.00 73 1016.4
20260507201538 70 278 2.0 8.0 0.00 0.00 0.00 73 1016.5
20260507201015 69 65 2.0 8.0 0.00 0.00 0.00 72 1016.5
20260507200515 69 227 2.0 8.0 0.00 0.00 0.00 73 1016.6
20260507200035 69 0 2.0 8.0 0.00 0.00 0.00 71 1016.6
20260507195517 69 98 2.0 8.0 0.00 0.00 0.00 73 1016.5
20260507195017 68 140 2.0 7.0 0.00 0.00 0.00 73 1016.5
20260507194545 69 82 2.0 6.0 0.00 0.00 0.00 72 1016.4
20260507194016 69 315 2.0 7.0 0.00 0.00 0.00 73 1016.5
20260507193515 68 70 2.0 7.0 0.00 0.00 0.00 73 1016.6
20260507193033 69 295 2.0 7.0 0.00 0.00 0.00 73 1016.7
20260507192515 69 121 2.0 8.0 0.00 0.00 0.00 73 1016.5
20260507192015 69 352 1.0 8.0 0.00 0.00 0.00 73 1016.7
20260507191535 70 258 2.0 10.0 0.00 0.00 0.00 71 1016.6
20260507191017 68 217 2.0 10.0 0.00 0.00 0.00 73 1016.7
20260507190515 69 75 2.0 7.0 0.00 0.00 0.00 72 1016.8
20260507190033 70 262 2.0 9.0 0.00 0.00 0.00 70 1016.9
20260507185517 70 27 1.0 9.0 0.00 0.00 0.00 71 1017.0
20260507185017 70 290 1.0 7.0 0.00 0.00 0.00 73 1017.1
20260507184537 70 278 2.0 7.0 0.00 0.00 0.00 72 1017.1
20260507184017 69 325 2.0 8.0 0.00 0.00 0.00 73 1017.1
20260507183518 69 24 2.0 8.0 0.00 0.00 0.00 75 1017.2
20260507183041 69 87 2.0 8.0 0.00 0.00 0.00 74 1017.2
20260507182515 68 262 2.0 7.0 0.00 0.00 0.00 74 1017.2
20260507182016 68 92 2.0 9.0 0.00 0.00 0.00 75 1017.2
20260507181538 67 105 2.0 9.0 0.00 0.00 0.00 75 1017.2
20260507181016 68 5 2.0 7.0 0.00 0.00 0.00 74 1017.3
20260507180516 68 57 2.0 5.0 0.00 0.00 0.00 73 1017.3
20260507180032 69 342 1.0 7.0 0.00 0.00 0.00 74 1017.2
20260507175517 68 19 1.0 7.0 0.00 0.00 0.00 75 1017.2
20260507175016 67 67 1.0 6.0 0.00 0.00 0.00 75 1017.4
20260507174535 67 38 2.0 6.0 0.00 0.00 0.00 75 1017.3
20260507174015 66 55 1.0 10.0 0.00 0.00 0.00 77 1017.4
20260507173520 65 0 2.0 10.0 0.00 0.00 0.00 77 1017.3
20260507173034 66 294 1.0 5.0 0.00 0.00 0.00 78 1017.3
20260507172517 66 66 2.0 5.0 0.00 0.00 0.00 76 1017.4
20260507172016 67 82 1.0 5.0 0.00 0.00 0.00 78 1017.3
20260507171532 65 106 0.0 5.0 0.00 0.00 0.00 80 1017.3
20260507171014 65 0 1.0 5.0 0.00 0.00 0.00 79 1017.3
20260507170515 65 259 1.0 5.0 0.00 0.00 0.00 80 1017.3
20260507170032 64 148 1.0 5.0 0.00 0.00 0.00 79 1017.3
20260507165515 65 105 2.0 4.0 0.00 0.00 0.00 80 1017.4
20260507165015 65 214 0.0 5.0 0.00 0.00 0.00 79 1017.4
20260507164534 65 46 1.0 5.0 0.00 0.00 0.00 81 1017.4
20260507164017 64 103 2.0 4.0 0.00 0.00 0.00 82 1017.5
20260507163518 63 29 1.0 4.0 0.00 0.00 0.00 82 1017.6
20260507163037 64 0 1.0 3.0 0.00 0.00 0.00 82 1017.6
20260507162515 63 27 0.0 3.0 0.00 0.00 0.00 83 1017.5
20260507162017 63 120 1.0 5.0 0.00 0.00 0.00 82 1017.5
20260507161539 63 223 1.0 5.0 0.00 0.00 0.00 81 1017.5
20260507161014 63 326 1.0 4.0 0.00 0.00 0.00 81 1017.5
20260507160518 64 45 0.0 3.0 0.00 0.00 0.00 83 1017.6
20260507160035 63 0 0.0 3.0 0.00 0.00 0.00 84 1017.7
20260507155519 62 0 1.0 3.0 0.00 0.00 0.00 84 1017.6
20260507155015 62 115 0.0 3.0 0.00 0.00 0.00 84 1017.7
20260507154533 62 64 0.0 3.0 0.00 0.00 0.00 86 1017.7
20260507154016 62 34 0.0 3.0 0.00 0.00 0.00 86 1017.7
20260507153514 62 74 0.0 3.0 0.00 0.00 0.00 86 1017.6
20260507153031 61 0 0.0 4.0 0.00 0.00 0.00 86 1017.5
20260507152513 61 152 1.0 4.0 0.00 0.00 0.00 86 1017.5
20260507152015 61 0 0.0 2.0 0.00 0.00 0.00 87 1017.5
20260507151535 61 0 0.0 2.0 0.00 0.00 0.00 88 1017.5
20260507151016 61 0 0.0 3.0 0.00 0.00 0.00 88 1017.5
20260507150516 61 0 0.0 3.0 0.00 0.00 0.00 88 1017.5
20260507150034 61 0 0.0 2.0 0.00 0.00 0.00 89 1017.3
20260507145514 61 0 0.0 2.0 0.00 0.00 0.00 89 1017.4
20260507145016 61 0 0.0 1.0 0.00 0.00 0.00 90 1017.3
20260507144532 60 0 0.0 2.0 0.00 0.00 0.00 90 1017.3
20260507144017 60 0 0.0 2.0 0.00 0.00 0.00 91 1017.2
20260507143514 59 0 0.0 2.0 0.00 0.00 0.00 91 1017.2
20260507143054 59 0 0.0 2.0 0.00 0.00 0.00 91 1017.1
20260507142514 59 0 0.0 2.0 0.00 0.00 0.00 92 1017.2
20260507142014 59 0 0.0 2.0 0.00 0.00 0.00 92 1017.1
20260507141552 59 0 0.0 2.0 0.00 0.00 0.00 92 1017.1
20260507141015 58 0 0.0 2.0 0.00 0.00 0.00 92 1017.0
20260507140514 58 0 0.0 2.0 0.00 0.00 0.00 92 1017.0
20260507140032 58 0 0.0 1.0 0.00 0.00 0.00 93 1017.0
20260507135514 58 313 0.0 1.0 0.00 0.00 0.00 93 1016.8
20260507135015 58 0 0.0 1.0 0.00 0.00 0.00 93 1017.0
20260507134535 58 0 0.0 1.0 0.00 0.00 0.00 93 1016.9
20260507134015 58 0 0.0 0.0 0.00 0.00 0.00 93 1016.8
20260507133517 58 0 0.0 0.0 0.00 0.00 0.00 93 1016.7
20260507133035 58 0 0.0 0.0 0.00 0.00 0.00 93 1016.7
20260507132516 58 0 0.0 0.0 0.00 0.00 0.00 93 1016.7
20260507132014 58 0 0.0 1.0 0.00 0.00 0.00 93 1016.8
20260507131537 58 0 0.0 1.0 0.00 0.00 0.00 93 1016.7
20260507131017 57 0 0.0 0.0 0.00 0.00 0.00 93 1016.8
20260507130515 57 0 0.0 0.0 0.00 0.00 0.00 93 1016.8
20260507130040 57 0 0.0 0.0 0.00 0.00 0.00 93 1016.6
20260507125521 58 0 0.0 0.0 0.00 0.00 0.00 93 1016.6
20260507125015 57 0 0.0 0.0 0.00 0.00 0.00 93 1016.6
20260507124531 57 0 0.0 0.0 0.00 0.00 0.00 93 1016.6
20260507124014 58 0 0.0 0.0 0.00 0.00 0.00 93 1016.5
20260507123516 58 0 0.0 0.0 0.00 0.00 0.00 93 1016.5
20260507123031 57 0 0.0 1.0 0.00 0.00 0.00 93 1016.5
20260507122514 57 0 0.0 1.0 0.00 0.00 0.00 93 1016.4
20260507122014 57 0 0.0 1.0 0.00 0.00 0.00 93 1016.5
20260507121532 57 0 0.0 1.0 0.00 0.00 0.00 93 1016.5
20260507121016 58 0 0.0 1.0 0.00 0.00 0.00 93 1016.5
20260507120514 58 0 0.0 1.0 0.00 0.00 0.00 93 1016.5
20260507120033 58 0 0.0 1.0 0.00 0.00 0.00 93 1016.5
20260507115517 58 0 0.0 1.0 0.00 0.00 0.00 93 1016.4
20260507115017 57 0 0.0 1.0 0.00 0.00 0.00 93 1016.4
20260507114532 57 0 0.0 1.0 0.00 0.00 0.00 93 1016.6
20260507114015 57 0 0.0 1.0 0.00 0.00 0.00 93 1016.5
20260507113521 57 0 0.0 1.0 0.00 0.00 0.00 93 1016.5
20260507113031 57 335 0.0 1.0 0.00 0.00 0.00 93 1016.5
20260507112515 57 335 0.0 1.0 0.00 0.00 0.00 93 1016.5
20260507112014 57 0 0.0 1.0 0.00 0.00 0.00 92 1016.6
20260507111534 57 0 0.0 1.0 0.00 0.00 0.00 92 1016.6
20260507111015 57 0 0.0 1.0 0.00 0.00 0.00 92 1016.6
20260507110516 57 0 0.0 1.0 0.00 0.00 0.00 92 1016.7
20260507110034 58 0 0.0 1.0 0.00 0.00 0.00 92 1016.7
20260507105515 58 0 0.0 1.0 0.00 0.00 0.00 92 1016.6
20260507105015 58 0 0.0 1.0 0.00 0.00 0.00 92 1016.8
20260507104536 58 0 0.0 1.0 0.00 0.00 0.00 92 1016.7
20260507104016 58 0 0.0 0.0 0.00 0.00 0.00 92 1016.7
20260507103516 58 0 0.0 1.0 0.00 0.00 0.00 92 1016.8
20260507103032 58 0 0.0 1.0 0.00 0.00 0.00 92 1016.8
20260507102516 58 0 0.0 1.0 0.00 0.00 0.00 92 1016.9
20260507102018 58 0 0.0 1.0 0.00 0.00 0.00 92 1016.9
20260507101534 58 0 0.0 1.0 0.00 0.00 0.00 92 1017.0
20260507101013 58 0 0.0 1.0 0.00 0.00 0.00 92 1017.0
20260507100516 58 0 0.0 2.0 0.00 0.00 0.00 92 1017.0
20260507100045 58 0 0.0 2.0 0.00 0.00 0.00 92 1017.1
20260507095516 58 0 0.0 1.0 0.00 0.00 0.00 92 1017.1
20260507095014 58 0 0.0 2.0 0.00 0.00 0.00 92 1017.2
20260507094535 58 0 0.0 2.0 0.00 0.00 0.00 92 1017.3
20260507094020 58 0 0.0 2.0 0.00 0.00 0.00 92 1017.1
20260507093515 57 0 0.0 2.0 0.00 0.00 0.00 92 1017.2
20260507093031 57 0 0.0 1.0 0.00 0.00 0.00 92 1017.2
20260507092515 57 0 0.0 1.0 0.00 0.00 0.00 92 1017.3
20260507092016 57 0 0.0 1.0 0.00 0.00 0.00 92 1017.3
20260507091534 57 0 0.0 1.0 0.00 0.00 0.00 92 1017.2
20260507091018 57 0 0.0 1.0 0.00 0.00 0.00 92 1017.4
20260507090515 58 0 0.0 1.0 0.00 0.00 0.00 92 1017.4
20260507090032 58 0 0.0 1.0 0.00 0.00 0.00 92 1017.4
20260507085514 58 0 0.0 2.0 0.00 0.00 0.00 92 1017.5
20260507085017 58 0 0.0 2.0 0.00 0.00 0.00 92 1017.6
20260507084537 58 0 0.0 0.0 0.00 0.00 0.00 92 1017.7
20260507084014 58 0 0.0 0.0 0.00 0.00 0.00 92 1017.6
20260507083515 58 0 0.0 0.0 0.00 0.00 0.00 92 1017.7
20260507083035 58 0 0.0 0.0 0.00 0.00 0.00 92 1017.7
20260507082516 58 0 0.0 0.0 0.00 0.00 0.00 92 1017.6
20260507082015 58 0 0.0 0.0 0.00 0.00 0.00 92 1017.7
20260507081533 57 0 0.0 0.0 0.00 0.00 0.00 91 1017.8
20260507081013 57 0 0.0 0.0 0.00 0.00 0.00 91 1017.8
20260507080517 57 0 0.0 0.0 0.00 0.00 0.00 91 1017.9
20260507080031 58 0 0.0 0.0 0.00 0.00 0.00 91 1018.0
20260507075517 58 0 0.0 0.0 0.00 0.00 0.00 91 1018.1
20260507075015 58 0 0.0 0.0 0.00 0.00 0.00 91 1018.0
20260507074533 58 0 0.0 0.0 0.00 0.00 0.00 91 1018.0
20260507074016 58 0 0.0 0.0 0.00 0.00 0.00 91 1018.0
20260507073513 57 0 0.0 0.0 0.00 0.00 0.00 91 1018.0
20260507073032 57 0 0.0 0.0 0.00 0.00 0.00 90 1018.0
20260507072513 58 0 0.0 0.0 0.00 0.00 0.00 90 1018.1
20260507072015 58 0 0.0 0.0 0.00 0.00 0.00 90 1018.2
20260507071537 58 0 0.0 0.0 0.00 0.00 0.00 90 1018.2
20260507071020 58 0 0.0 0.0 0.00 0.00 0.00 90 1018.2
20260507070516 58 0 0.0 0.0 0.00 0.00 0.00 90 1018.2
20260507070041 58 0 0.0 0.0 0.00 0.00 0.00 90 1018.2
20260507065516 58 0 0.0 0.0 0.00 0.00 0.00 90 1018.2
20260507065016 58 0 0.0 0.0 0.00 0.00 0.00 90 1018.1
20260507064558 58 0 0.0 0.0 0.00 0.00 0.00 90 1018.1
20260507064015 58 0 0.0 0.0 0.00 0.00 0.00 90 1018.2
20260507063516 58 0 0.0 0.0 0.00 0.00 0.00 90 1018.4
20260507063035 58 0 0.0 0.0 0.00 0.00 0.00 90 1018.3
20260507062521 59 0 0.0 0.0 0.00 0.00 0.00 90 1018.3
20260507062014 59 0 0.0 0.0 0.00 0.00 0.00 90 1018.3
20260507061532 59 0 0.0 0.0 0.00 0.00 0.00 90 1018.1
20260507061016 59 0 0.0 0.0 0.00 0.00 0.00 90 1018.2
20260507060515 59 0 0.0 0.0 0.00 0.00 0.00 90 1018.2
20260507060032 59 0 0.0 0.0 0.00 0.00 0.00 90 1018.3
20260507055514 59 0 0.0 0.0 0.00 0.00 0.00 90 1018.3
20260507055018 59 0 0.0 0.0 0.00 0.00 0.00 90 1018.3
20260507054534 59 0 0.0 0.0 0.00 0.00 0.00 90 1018.2
20260507054013 59 0 0.0 0.0 0.00 0.00 0.00 90 1018.2
20260507053516 59 0 0.0 0.0 0.00 0.00 0.00 90 1018.3
20260507053031 59 0 0.0 0.0 0.00 0.00 0.00 90 1018.2
20260507052514 59 0 0.0 0.0 0.00 0.00 0.00 90 1018.1
20260507052014 59 0 0.0 0.0 0.00 0.00 0.00 90 1018.2
20260507051536 59 0 0.0 0.0 0.00 0.00 0.00 90 1018.2
20260507051013 59 0 0.0 0.0 0.00 0.00 0.00 90 1018.2
20260507050517 59 0 0.0 2.0 0.00 0.00 0.00 90 1018.2
20260507050040 59 0 0.0 2.0 0.00 0.00 0.00 90 1018.2
20260507045516 59 0 0.0 2.0 0.00 0.00 0.00 90 1018.2
20260507045016 59 0 0.0 1.0 0.00 0.00 0.00 90 1018.3
20260507044532 60 0 0.0 1.0 0.00 0.00 0.00 90 1018.3
20260507044016 60 0 0.0 1.0 0.00 0.00 0.00 90 1018.2
20260507043515 60 0 0.0 1.0 0.00 0.00 0.00 90 1018.1
20260507043034 59 0 0.0 2.0 0.00 0.00 0.00 90 1018.1
20260507042515 59 0 0.0 2.0 0.00 0.00 0.00 90 1018.0
20260507042014 60 0 0.0 2.0 0.00 0.00 0.00 89 1018.0
20260507041532 60 0 0.0 2.0 0.00 0.00 0.00 89 1018.0
20260507041014 60 0 0.0 2.0 0.00 0.00 0.00 89 1017.9
20260507040516 60 0 0.0 2.0 0.00 0.00 0.00 89 1017.9
20260507040034 60 0 0.0 2.0 0.00 0.00 0.00 89 1018.0
20260507035516 60 0 0.0 2.0 0.00 0.00 0.00 89 1018.0
20260507035016 60 0 0.0 2.0 0.00 0.00 0.00 89 1017.9
20260507034531 60 0 0.0 2.0 0.00 0.00 0.00 88 1017.9
20260507034017 60 332 0.0 2.0 0.00 0.00 0.00 88 1017.9
20260507033519 60 0 0.0 1.0 0.00 0.00 0.00 88 1017.9
20260507033032 60 0 0.0 1.0 0.00 0.00 0.00 88 1017.7
20260507032516 60 0 0.0 0.0 0.00 0.00 0.00 88 1017.7
20260507032013 60 0 0.0 0.0 0.00 0.00 0.00 87 1017.6
20260507031533 60 0 0.0 0.0 0.00 0.00 0.00 87 1017.7
20260507031017 60 0 0.0 0.0 0.00 0.00 0.00 87 1017.6
20260507030519 60 0 0.0 0.0 0.00 0.00 0.00 86 1017.5
20260507030037 60 0 0.0 0.0 0.00 0.00 0.00 86 1017.6
20260507025515 60 0 0.0 0.0 0.00 0.00 0.00 86 1017.5
20260507025015 60 0 0.0 1.0 0.00 0.00 0.00 86 1017.4
20260507024533 61 0 0.0 1.0 0.00 0.00 0.00 86 1017.4
20260507024016 61 0 0.0 1.0 0.00 0.00 0.00 85 1017.4
20260507023516 61 0 0.0 2.0 0.00 0.00 0.00 85 1017.4
20260507023031 61 0 0.0 3.0 0.00 0.00 0.00 85 1017.3
20260507022513 61 5 0.0 3.0 0.00 0.00 0.00 85 1017.4
20260507022016 61 322 0.0 2.0 0.00 0.00 0.00 85 1017.4
20260507021531 61 0 0.0 2.0 0.00 0.00 0.00 85 1017.4
20260507021015 62 0 0.0 2.0 0.00 0.00 0.00 85 1017.3
20260507020516 62 5 0.0 2.0 0.00 0.00 0.00 85 1017.3
20260507020034 62 0 0.0 3.0 0.00 0.00 0.00 84 1017.2
20260507015518 62 0 0.0 3.0 0.00 0.00 0.00 84 1017.1
20260507015016 62 0 0.0 2.0 0.00 0.00 0.00 84 1017.2
20260507014532 62 0 0.0 2.0 0.00 0.00 0.00 83 1017.3
20260507014016 62 0 0.0 2.0 0.00 0.00 0.00 83 1017.2
20260507013516 63 52 0.0 2.0 0.00 0.00 0.00 83 1017.2
20260507013032 63 0 0.0 3.0 0.00 0.00 0.00 83 1017.2
20260507012515 63 0 1.0 7.0 0.00 0.00 0.00 82 1017.2
20260507012014 63 0 0.0 7.0 0.00 0.00 0.00 82 1017.2
20260507011538 63 292 0.0 4.0 0.00 0.00 0.00 82 1017.1
20260507011013 63 42 0.0 4.0 0.00 0.00 0.00 82 1017.1
20260507010515 64 45 1.0 3.0 0.00 0.00 0.00 82 1017.1
20260507010048 64 38 1.0 5.0 0.00 0.00 0.00 81 1017.0
20260507005516 64 0 0.0 5.0 0.00 0.00 0.00 81 1017.1
20260507005017 64 46 1.0 6.0 0.00 0.00 0.00 80 1017.1
20260507004534 64 56 2.0 6.0 0.00 0.00 0.00 80 1017.1
20260507004016 65 54 1.0 6.0 0.00 0.00 0.00 80 1017.1
20260507003517 65 63 1.0 6.0 0.00 0.00 0.00 80 1017.1
20260507003030 65 0 1.0 9.0 0.00 0.00 0.00 79 1017.0
20260507002517 66 132 1.0 9.0 0.00 0.00 0.00 78 1017.0
20260507002016 67 290 1.0 5.0 0.00 0.00 0.00 76 1017.0
20260507001533 66 0 1.0 7.0 0.00 0.00 0.00 77 1016.9
20260507001015 66 55 1.0 7.0 0.00 0.00 0.00 76 1016.8
20260507000518 67 79 1.0 4.0 0.00 0.00 0.00 76 1017.0
20260507000032 67 31 1.0 4.0 0.00 0.00 0.00 76 1016.9
20260506235516 66 0 1.0 4.0 0.00 0.00 0.00 76 1016.8
20260506235015 67 105 1.0 6.0 0.00 0.00 0.00 76 1016.8
20260506234533 67 24 1.0 8.0 0.00 0.00 0.00 76 1016.8
20260506234016 67 333 1.0 8.0 0.00 0.00 0.00 76 1016.8
20260506233517 67 5 1.0 4.0 0.00 0.00 0.00 75 1016.9
20260506233033 67 0 1.0 7.0 0.00 0.00 0.00 74 1016.8
20260506232515 67 52 2.0 7.0 0.00 0.00 0.00 73 1016.9
20260506232013 68 46 2.0 5.0 0.00 0.00 0.00 73 1016.9
20260506231531 69 0 1.0 7.0 0.00 0.00 0.00 73 1017.1
20260506231015 68 134 2.0 8.0 0.00 0.00 0.00 72 1016.9
20260506230513 69 5 1.0 8.0 0.00 0.00 0.00 71 1016.9
20260506230038 70 92 2.0 9.0 0.00 0.00 0.00 69 1017.0
20260506225516 69 250 1.0 9.0 0.00 0.00 0.00 73 1017.0
20260506225016 69 65 2.0 9.0 0.00 0.00 0.00 71 1017.1
20260506224537 69 67 1.0 8.0 0.00 0.00 0.00 71 1017.1
20260506224013 69 77 2.0 9.0 0.00 0.00 0.00 69 1017.2
20260506223515 70 306 2.0 9.0 0.00 0.00 0.00 70 1017.3
20260506223032 70 336 0.0 6.0 0.00 0.00 0.00 70 1017.4
20260506222517 69 66 2.0 6.0 0.00 0.00 0.00 71 1017.2
20260506222018 68 94 2.0 8.0 0.00 0.00 0.00 71 1017.2
20260506221529 70 52 2.0 8.0 0.00 0.00 0.00 70 1017.3
20260506221015 70 34 2.0 7.0 0.00 0.00 0.00 69 1017.5
20260506220515 69 74 1.0 6.0 0.00 0.00 0.00 70 1017.4
20260506220035 70 65 1.0 6.0 0.00 0.00 0.00 67 1017.4
20260506215519 70 0 2.0 9.0 0.00 0.00 0.00 68 1017.4
20260506215013 71 275 1.0 9.0 0.00 0.00 0.00 70 1017.5
20260506214536 71 74 1.0 10.0 0.00 0.00 0.00 67 1017.5
20260506214012 70 350 2.0 10.0 0.00 0.00 0.00 67 1017.6
20260506213515 71 290 2.0 9.0 0.00 0.00 0.00 67 1017.7
20260506213037 71 69 2.0 11.0 0.00 0.00 0.00 68 1017.6
20260506212515 71 340 1.0 11.0 0.00 0.00 0.00 67 1017.7
20260506212020 71 38 2.0 11.0 0.00 0.00 0.00 68 1017.6
20260506211534 71 92 1.0 6.0 0.00 0.00 0.00 66 1017.6
20260506211015 71 0 1.0 9.0 0.00 0.00 0.00 67 1017.7
20260506210516 70 0 1.0 9.0 0.00 0.00 0.00 67 1017.8
20260506210034 71 49 1.0 9.0 0.00 0.00 0.00 67 1017.9
20260506205515 71 85 1.0 9.0 0.00 0.00 0.00 67 1017.9